GW5769 Weather Reports


time (UTC)temp
C
wind
direction
speed
KPH
gust
KPH
rain 1hr
cm
rain 24hr
cm
rain mn
cm
humidity
%
barometer
mb
20260504110334 7 148 3.2 3.2 0.00 0.00 0.00 75 1010.6
20260504100251 7 211 1.6 3.2 0.00 0.00 0.00 72 1010.5
20260504081644 8 225 3.2 3.2 0.00 0.00 0.00 76 1010.7
20260504081141 8 242 1.6 3.2 0.00 0.00 0.00 77 1010.8
20260504080637 8 260 1.6 3.2 0.00 0.00 0.00 77 1010.5
20260504080134 8 218 1.6 1.6 0.00 0.00 0.00 77 1010.8
20260504050450 8 249 1.6 3.2 0.00 0.00 0.00 73 1011.1
20260504045947 8 164 1.6 1.6 0.00 0.00 0.00 72 1011.4
20260504045443 8 117 1.6 1.6 0.00 0.00 0.00 72 1011.3
20260504044939 8 143 3.2 3.2 0.00 0.00 0.00 72 1011.4
20260504044437 8 168 4.8 4.8 0.00 0.00 0.00 72 1011.4
20260504043934 8 256 1.6 3.2 0.00 0.00 0.00 71 1011.4
20260504043431 8 95 0.0 1.6 0.00 0.00 0.00 71 1011.6
20260504042928 8 70 0.0 0.0 0.00 0.00 0.00 71 1011.7
20260504042425 8 147 0.0 1.6 0.00 0.00 0.00 71 1011.2
20260504041921 8 132 1.6 1.6 0.00 0.00 0.00 71 1011.6
20260504041418 8 171 1.6 4.8 0.00 0.00 0.00 70 1011.5
20260504040914 8 320 1.6 1.6 0.00 0.00 0.00 68 1011.6
20260504040412 8 219 3.2 3.2 0.00 0.00 0.00 64 1011.6
20260504035908 8 142 1.6 1.6 0.00 0.05 0.05 63 1011.6
20260504035405 8 162 4.8 4.8 0.00 0.05 0.05 60 1011.5
20260504034902 8 238 4.8 4.8 0.00 0.05 0.05 59 1011.7
20260504034359 8 138 3.2 3.2 0.00 0.05 0.05 58 1011.5
20260504033856 8 148 1.6 3.2 0.00 0.05 0.05 58 1011.4
20260504033354 8 158 4.8 4.8 0.00 0.05 0.05 57 1011.4
20260504032850 8 128 0.0 1.6 0.00 0.05 0.05 57 1011.7
20260504032347 7 200 3.2 3.2 0.00 0.05 0.05 58 1011.6
20260504031844 7 163 1.6 1.6 0.00 0.05 0.05 60 1011.5
20260504031341 8 146 1.6 3.2 0.00 0.05 0.05 57 1011.4
20260504030837 8 170 1.6 1.6 0.00 0.05 0.05 54 1011.5
20260504030335 8 144 1.6 1.6 0.00 0.05 0.05 54 1011.2
20260504025831 8 275 1.6 1.6 0.00 0.05 0.05 56 1011.5
20260504025328 8 101 1.6 1.6 0.00 0.05 0.05 52 1011.1
20260504024825 8 157 1.6 1.6 0.00 0.05 0.05 56 1011.2
20260504024321 8 324 1.6 3.2 0.00 0.05 0.05 54 1011.3
20260504023818 8 232 0.0 1.6 0.00 0.05 0.05 52 1011.3
20260504023315 8 318 1.6 1.6 0.00 0.05 0.05 52 1011.4
20260504022810 7 94 1.6 1.6 0.00 0.05 0.05 52 1011.2
20260504022308 7 224 3.2 3.2 0.00 0.05 0.05 57 1011.2
20260504021804 7 315 3.2 3.2 0.00 0.05 0.05 55 1011.2
20260504021302 7 283 1.6 3.2 0.00 0.05 0.05 58 1011.3
20260504020758 6 276 3.2 3.2 0.00 0.05 0.05 54 1011.2
20260504020255 6 2 0.0 1.6 0.00 0.05 0.05 57 1011.2
20260504015751 6 301 1.6 1.6 0.00 0.05 0.05 56 1011.4
20260504015248 6 40 0.0 0.0 0.00 0.05 0.05 57 1011.4
20260504014743 6 293 3.2 3.2 0.00 0.05 0.05 56 1011.4
20260504014240 6 20 0.0 0.0 0.00 0.05 0.05 56 1011.3
20260504013738 7 34 0.0 1.6 0.00 0.05 0.05 54 1011.4
20260504013235 7 195 1.6 1.6 0.00 0.05 0.05 47 1011.4
20260504012731 7 210 1.6 1.6 0.00 0.05 0.05 50 1011.4
20260504012230 7 246 1.6 3.2 0.00 0.05 0.05 50 1011.4
20260504011726 7 14 0.0 0.0 0.00 0.05 0.05 56 1011.0
20260504011223 7 268 4.8 4.8 0.00 0.05 0.05 49 1011.0
20260504010719 7 265 4.8 4.8 0.00 0.05 0.05 51 1011.1
20260504010215 7 242 3.2 3.2 0.00 0.05 0.05 49 1010.9
20260504005711 8 295 1.6 3.2 0.00 0.05 0.05 48 1010.9
20260504005208 10 283 4.8 4.8 0.00 0.05 0.05 42 1010.9
20260504004707 10 322 3.2 4.8 0.00 0.05 0.05 41 1010.8
20260504004203 10 283 1.6 3.2 0.00 0.05 0.05 42 1010.7
20260504003700 10 297 4.8 4.8 0.00 0.05 0.05 41 1010.8
20260504003157 9 265 4.8 4.8 0.00 0.05 0.05 42 1010.6
20260504002653 10 296 1.6 3.2 0.00 0.05 0.05 42 1010.5
20260504002150 10 301 3.2 3.2 0.00 0.05 0.05 42 1010.3
20260504001649 10 348 1.6 1.6 0.00 0.05 0.05 41 1010.3
20260504001144 11 280 8.0 9.7 0.00 0.05 0.05 37 1010.4
20260504000642 11 284 4.8 8.0 0.00 0.05 0.05 38 1010.1
20260504000139 11 292 4.8 4.8 0.00 0.05 0.05 39 1010.1
20260503235637 11 285 6.4 8.0 0.00 0.05 0.05 35 1010.0
20260503235133 11 300 4.8 4.8 0.00 0.05 0.05 38 1010.0
20260503234631 11 293 6.4 11.3 0.00 0.05 0.05 36 1009.7
20260503234129 11 284 6.4 8.0 0.00 0.05 0.05 37 1009.8
20260503233626 10 291 8.0 9.7 0.00 0.05 0.05 40 1009.7
20260503233122 10 277 4.8 4.8 0.00 0.05 0.05 50 1009.3
20260503232619 10 284 1.6 3.2 0.00 0.05 0.05 51 1009.3
20260503232116 11 247 4.8 4.8 0.00 0.05 0.05 53 1009.2
20260503231614 12 236 3.2 3.2 0.00 0.05 0.05 45 1009.3
20260503231110 13 253 3.2 3.2 0.00 0.05 0.05 41 1009.3
20260503230607 13 359 0.0 0.0 0.00 0.05 0.05 40 1009.3
20260503230104 13 14 0.0 0.0 0.00 0.05 0.05 42 1009.1
20260503225602 13 30 0.0 0.0 0.00 0.05 0.05 39 1009.2
20260503225056 12 26 0.0 0.0 0.00 0.05 0.05 39 1009.1
20260503224554 12 27 3.2 3.2 0.00 0.05 0.05 36 1009.2
20260503224052 12 346 1.6 1.6 0.00 0.05 0.05 35 1009.0
20260503223550 12 36 0.0 0.0 0.00 0.05 0.05 41 1009.0
20260503223045 12 101 1.6 1.6 0.00 0.05 0.05 38 1009.0
20260503222543 11 36 3.2 3.2 0.00 0.05 0.05 43 1009.0
20260503222041 11 39 1.6 3.2 0.00 0.05 0.05 42 1009.2
20260503221539 11 36 1.6 1.6 0.00 0.05 0.05 44 1009.1
20260503221036 11 41 0.0 0.0 0.00 0.05 0.05 42 1009.1
20260503220532 12 52 0.0 0.0 0.00 0.05 0.05 42 1009.2
20260503220029 12 18 1.6 1.6 0.00 0.05 0.05 40 1009.3
20260503215526 12 34 1.6 1.6 0.00 0.05 0.05 39 1009.2
20260503215023 12 16 1.6 1.6 0.00 0.05 0.05 39 1009.2
20260503214521 12 317 8.0 9.7 0.00 0.05 0.05 39 1009.3
20260503214018 12 294 3.2 3.2 0.00 0.05 0.05 37 1009.4
20260503213516 12 23 4.8 4.8 0.00 0.05 0.05 38 1009.3
20260503213013 12 34 4.8 4.8 0.00 0.05 0.05 38 1009.2
20260503212510 13 331 0.0 0.0 0.00 0.05 0.05 40 1009.1
20260503212008 13 48 3.2 4.8 0.00 0.05 0.05 38 1009.3
20260503211504 13 9 0.0 1.6 0.00 0.05 0.05 39 1009.2
20260503211000 12 308 19.3 24.1 0.00 0.05 0.05 39 1009.3
20260503210457 12 42 4.8 9.7 0.00 0.05 0.05 40 1009.2
20260503205957 12 30 4.8 9.7 0.00 0.05 0.05 40 1009.5
20260503205454 12 64 9.7 14.5 0.00 0.05 0.05 42 1009.2
20260503204950 12 238 4.8 8.0 0.00 0.05 0.05 39 1009.6
20260503204448 12 21 8.0 9.7 0.00 0.05 0.05 40 1009.6
20260503203944 12 20 11.3 14.5 0.00 0.05 0.05 40 1009.7
20260503203442 12 5 6.4 8.0 0.00 0.05 0.05 42 1009.8
20260503202938 12 22 9.7 11.3 0.00 0.05 0.05 39 1009.7
20260503202437 11 43 1.6 3.2 0.00 0.05 0.05 43 1009.9
20260503201935 11 292 6.4 9.7 0.00 0.05 0.05 42 1009.8
20260503201432 11 274 17.7 25.7 0.00 0.05 0.05 40 1009.7
20260503200930 11 301 16.1 17.7 0.00 0.05 0.05 41 1009.9
20260503200426 11 359 3.2 4.8 0.00 0.05 0.05 41 1009.9
20260503195922 11 325 4.8 4.8 0.00 0.05 0.05 43 1009.9
20260503195420 11 343 8.0 9.7 0.00 0.05 0.05 43 1010.0
20260503194916 11 253 6.4 8.0 0.00 0.05 0.05 43 1009.8
20260503194413 11 311 4.8 4.8 0.00 0.05 0.05 48 1009.9
20260503193909 11 305 9.7 11.3 0.00 0.05 0.05 44 1010.1
20260503193404 11 265 6.4 9.7 0.00 0.05 0.05 43 1010.0
20260503192900 11 318 11.3 17.7 0.00 0.05 0.05 45 1010.4
20260503192356 11 0 0.0 0.0 0.00 0.05 0.05 47 1010.3
20260503191852 11 279 4.8 4.8 0.00 0.05 0.05 46 1010.3
20260503191350 11 261 4.8 4.8 0.00 0.05 0.05 45 1010.6
20260503190846 11 305 3.2 3.2 0.00 0.05 0.05 47 1010.3
20260503190343 11 4 4.8 4.8 0.00 0.05 0.05 44 1010.8
20260503185840 10 290 4.8 4.8 0.00 0.05 0.05 49 1010.6
20260503185337 11 276 8.0 11.3 0.00 0.05 0.05 45 1010.6
20260503184836 11 270 8.0 9.7 0.00 0.05 0.05 48 1010.6
20260503184333 10 290 4.8 4.8 0.00 0.05 0.05 50 1010.7
20260503183829 10 271 8.0 11.3 0.00 0.05 0.05 50 1010.9
20260503183326 10 278 8.0 11.3 0.00 0.05 0.05 50 1010.7
20260503182823 10 290 12.9 14.5 0.00 0.05 0.05 45 1010.6
20260503182323 10 280 11.3 14.5 0.00 0.05 0.05 49 1010.9
20260503181819 11 289 6.4 9.7 0.00 0.05 0.05 47 1011.0
20260503181316 10 227 3.2 4.8 0.00 0.05 0.05 46 1010.9
20260503180813 10 302 9.7 12.9 0.00 0.05 0.05 44 1011.1
20260503180311 10 249 6.4 9.7 0.00 0.05 0.05 48 1010.9
20260503175807 10 325 8.0 11.3 0.00 0.05 0.05 44 1011.0
20260503175305 10 29 4.8 4.8 0.00 0.05 0.05 47 1010.9
20260503174806 10 263 9.7 11.3 0.00 0.05 0.05 48 1011.1
20260503174304 10 288 9.7 12.9 0.00 0.05 0.05 49 1011.3
20260503173759 10 262 11.3 12.9 0.00 0.05 0.05 46 1011.3
20260503173255 10 315 11.3 14.5 0.00 0.05 0.05 47 1011.3
20260503172752 9 307 9.7 16.1 0.00 0.05 0.05 45 1011.4
20260503172250 9 337 8.0 14.5 0.00 0.05 0.05 46 1011.2
20260503171746 10 307 11.3 12.9 0.00 0.05 0.05 46 1011.1
20260503171243 10 322 8.0 9.7 0.00 0.05 0.05 49 1011.4
20260503170740 9 306 11.3 12.9 0.00 0.05 0.05 48 1011.3
20260503170237 9 303 6.4 8.0 0.00 0.05 0.05 50 1011.4
20260503160159 9 317 20.9 25.7 0.00 0.00 0.00 49 1011.4
20260503150629 9 14 4.8 8.0 0.00 0.00 0.00 53 1011.5
20260503150125 9 310 11.3 16.1 0.00 0.00 0.00 55 1011.7
20260503131019 7 284 11.3 12.9 0.00 0.00 0.00 65 1012.0
20260503130516 7 311 9.7 11.3 0.00 0.00 0.00 66 1012.3